GW2644 Weather Reports


Display with metric or nautical units.
time (UTC)temp
F
wind
direction
speed
MPH
gust
MPH
rain 1hr
in
rain 24hr
in
rain mn
in
humidity
%
barometer
mb
20260904181947 76 214 4.0 4.0 0.00 0.00 0.00 61 1017.9
20260904181443 76 206 1.0 2.0 0.00 0.00 0.00 61 1017.9
20260904180937 75 342 0.0 1.0 0.00 0.00 0.00 60 1017.8
20260904180432 75 106 0.0 2.0 0.00 0.00 0.00 61 1017.9
20260904175926 75 90 0.0 1.0 0.00 0.00 0.00 62 1018.2
20260904175425 75 257 2.0 2.0 0.00 0.00 0.00 61 1018.2
20260904174919 75 145 0.0 0.0 0.00 0.00 0.00 62 1018.1
20260904174415 75 324 0.0 2.0 0.00 0.00 0.00 63 1018.4
20260904173911 74 270 0.0 1.0 0.00 0.00 0.00 64 1018.2
20260904173406 74 145 1.0 2.0 0.00 0.00 0.00 65 1018.2
20260904172902 74 114 0.0 0.0 0.00 0.00 0.00 66 1018.3
20260904172401 73 263 0.0 0.0 0.00 0.00 0.00 66 1018.1
20260904171856 74 201 0.0 3.0 0.00 0.00 0.00 65 1018.0
20260904171351 71 235 0.0 2.0 0.00 0.00 0.00 67 1018.0
20260904170848 72 107 0.0 2.0 0.00 0.00 0.00 69 1018.2
20260904170343 70 270 0.0 2.0 0.00 0.00 0.00 70 1018.1
20260904165838 72 225 0.0 2.0 0.00 0.00 0.00 68 1017.9
20260904165337 70 270 2.0 2.0 0.00 0.00 0.00 71 1017.8
20260904164832 71 352 0.0 4.0 0.00 0.00 0.00 71 1017.9
20260904164327 71 294 0.0 2.0 0.00 0.00 0.00 70 1017.8
20260904163823 72 228 2.0 3.0 0.00 0.00 0.00 71 1017.7
20260904163318 71 209 0.0 2.0 0.00 0.00 0.00 71 1018.0
20260904162817 69 234 0.0 3.0 0.00 0.00 0.00 73 1017.8
20260904162312 71 188 0.0 0.0 0.00 0.00 0.00 71 1017.6
20260904161808 72 188 0.0 0.0 0.00 0.00 0.00 71 1017.8
20260904161307 72 270 0.0 1.0 0.00 0.00 0.00 72 1017.8
20260904160803 71 90 0.0 1.0 0.00 0.00 0.00 76 1017.9
20260904160258 69 235 0.0 3.0 0.00 0.00 0.00 78 1017.7
20260904155758 69 270 0.0 2.0 0.00 0.00 0.00 78 1017.7
20260904155258 69 221 0.0 0.0 0.00 0.00 0.00 81 1017.6
20260904154756 69 294 0.0 2.0 0.00 0.00 0.00 81 1017.5
20260904154252 69 246 0.0 0.0 0.00 0.00 0.00 83 1017.4
20260904153747 69 270 0.0 2.0 0.00 0.00 0.00 83 1017.6
20260904153243 69 270 0.0 0.0 0.00 0.00 0.00 83 1017.3
20260904152739 68 278 0.0 0.0 0.00 0.00 0.00 84 1017.4
20260904152233 68 345 0.0 1.0 0.00 0.00 0.00 85 1017.5
20260904151728 68 174 0.0 1.0 0.00 0.00 0.00 85 1017.5
20260904151227 68 135 0.0 2.0 0.00 0.00 0.00 87 1017.5
20260904150723 67 145 0.0 1.0 0.00 0.00 0.00 87 1017.5
20260904150218 67 90 0.0 0.0 0.00 0.00 0.00 87 1017.6
20260904145716 67 144 0.0 4.0 0.00 0.00 0.00 88 1017.6
20260904145212 67 90 0.0 0.0 0.00 0.00 0.00 89 1017.4
20260904144708 66 90 0.0 2.0 0.00 0.00 0.00 89 1017.4
20260904144203 66 106 0.0 0.0 0.00 0.00 0.00 90 1017.4
20260904143658 66 106 0.0 2.0 0.00 0.00 0.00 91 1017.4
20260904143155 65 142 0.0 0.0 0.00 0.00 0.00 92 1017.3
20260904142651 65 142 0.0 2.0 0.00 0.00 0.00 93 1017.3
20260904142147 65 157 0.0 0.0 0.00 0.00 0.00 94 1017.2
20260904141642 64 157 0.0 2.0 0.00 0.00 0.00 94 1017.2
20260904141137 64 180 0.0 0.0 0.00 0.00 0.00 94 1017.2
20260904140633 64 270 0.0 0.0 0.00 0.00 0.00 95 1016.9
20260904140128 64 270 0.0 0.0 0.00 0.00 0.00 95 1016.8
20260904135626 63 270 0.0 0.0 0.00 0.00 0.00 95 1017.0
20260904135123 63 270 0.0 0.0 0.00 0.00 0.00 95 1016.9
20260904134618 63 270 0.0 0.0 0.00 0.00 0.00 95 1016.9
20260904134117 63 270 0.0 0.0 0.00 0.00 0.00 95 1016.8
20260904133612 64 270 0.0 0.0 0.00 0.00 0.00 95 1016.8
20260904133108 64 270 0.0 0.0 0.00 0.00 0.00 95 1016.8
20260904132608 64 270 0.0 0.0 0.00 0.00 0.00 95 1016.9
20260904132103 64 270 0.0 0.0 0.00 0.00 0.00 95 1016.9
20260904131557 64 270 0.0 0.0 0.00 0.00 0.00 95 1016.8
20260904131053 64 270 0.0 0.0 0.00 0.00 0.00 95 1016.6
20260904130552 64 270 0.0 0.0 0.00 0.00 0.00 95 1016.9
20260904130047 63 270 0.0 0.0 0.00 0.00 0.00 95 1016.8
20260904125543 64 270 0.0 0.0 0.00 0.00 0.00 95 1016.7
20260904125038 64 270 0.0 0.0 0.00 0.00 0.00 95 1016.7
20260904124533 64 270 0.0 0.0 0.00 0.00 0.00 95 1016.8
20260904124028 64 270 0.0 0.0 0.00 0.00 0.00 95 1016.7
20260904123523 64 270 0.0 0.0 0.00 0.00 0.00 94 1016.4
20260904123018 63 270 0.0 0.0 0.00 0.00 0.00 94 1016.7
20260904122513 63 270 0.0 0.0 0.00 0.00 0.00 94 1016.5
20260904122008 64 270 0.0 0.0 0.00 0.00 0.00 94 1016.5
20260904121503 64 246 0.0 0.0 0.00 0.00 0.00 94 1016.5
20260904120959 64 246 0.0 0.0 0.00 0.00 0.00 94 1016.5
20260904120455 64 180 0.0 0.0 0.00 0.00 0.00 94 1016.4
20260904115949 64 180 0.0 0.0 0.00 0.00 0.00 94 1016.4
20260904115446 64 180 0.0 0.0 0.00 0.00 0.00 94 1016.4
20260904114945 64 180 0.0 0.0 0.00 0.00 0.00 94 1016.3
20260904114440 64 180 0.0 0.0 0.00 0.00 0.00 94 1016.4
20260904113936 64 180 0.0 0.0 0.00 0.00 0.00 94 1016.5
20260904113435 64 180 0.0 0.0 0.00 0.00 0.00 94 1016.5
20260904112933 64 180 0.0 0.0 0.00 0.00 0.00 94 1016.5
20260904085208 67 254 0.0 0.0 0.00 0.00 0.00 91 1016.4
20260904084702 67 254 0.0 0.0 0.00 0.00 0.00 91 1016.4
20260904084153 67 254 0.0 0.0 0.00 0.00 0.00 91 1016.2
20260904083649 67 254 0.0 1.0 0.00 0.00 0.00 91 1016.5
20260904083146 67 270 0.0 0.0 0.00 0.00 0.00 91 1016.6
20260904082640 67 270 0.0 0.0 0.00 0.00 0.00 91 1016.5
20260904082136 67 270 0.0 0.0 0.00 0.00 0.00 90 1016.6
20260904081631 66 270 0.0 0.0 0.00 0.00 0.00 90 1016.6
20260904081126 66 270 0.0 0.0 0.00 0.00 0.00 90 1016.6
20260904080621 67 270 0.0 0.0 0.00 0.00 0.00 90 1016.5
20260904080118 67 270 0.0 0.0 0.00 0.00 0.00 89 1016.3
20260904075613 67 270 0.0 0.0 0.00 0.00 0.00 89 1016.5
20260904075112 67 270 0.0 0.0 0.00 0.00 0.00 90 1016.6
20260904074607 66 270 0.0 0.0 0.00 0.00 0.00 90 1016.5
20260904074102 66 270 0.0 0.0 0.00 0.00 0.00 89 1016.6
20260904073556 66 270 0.0 0.0 0.00 0.00 0.00 89 1016.5
20260904073053 66 270 0.0 0.0 0.00 0.00 0.00 89 1016.7
20260904072548 67 270 0.0 0.0 0.00 0.00 0.00 89 1016.5
20260904072043 67 270 0.0 0.0 0.00 0.00 0.00 89 1016.6
20260904071539 66 270 0.0 0.0 0.00 0.00 0.00 88 1016.3
20260904071034 66 270 0.0 0.0 0.00 0.00 0.00 88 1016.5
20260904070532 67 270 0.0 0.0 0.00 0.00 0.00 87 1016.4
20260904070028 67 270 0.0 0.0 0.00 0.00 0.00 87 1016.3
20260904065522 68 270 0.0 0.0 0.00 0.00 0.00 87 1016.5
20260904065019 68 270 0.0 0.0 0.00 0.00 0.00 88 1016.4
20260904064515 67 270 0.0 0.0 0.00 0.00 0.00 87 1016.6
20260904064009 67 270 0.0 0.0 0.00 0.00 0.00 87 1016.5
20260904063506 68 270 0.0 0.0 0.00 0.00 0.00 87 1016.5
20260904063006 67 270 0.0 0.0 0.00 0.00 0.00 87 1016.4
20260904062502 67 270 0.0 0.0 0.00 0.00 0.00 87 1016.6
20260904061957 68 270 0.0 0.0 0.00 0.00 0.00 87 1016.5
20260904061453 68 270 0.0 0.0 0.00 0.00 0.00 86 1016.5
20260904060949 68 270 0.0 0.0 0.00 0.00 0.00 86 1016.3
20260904060445 68 270 0.0 0.0 0.00 0.00 0.00 86 1016.4
20260904055940 69 270 0.0 0.0 0.00 0.00 0.00 86 1016.4
20260904055436 68 270 0.0 0.0 0.00 0.00 0.00 85 1016.3
20260904054932 69 270 0.0 0.0 0.00 0.00 0.00 85 1016.2
20260904054427 69 270 0.0 0.0 0.00 0.00 0.00 85 1016.2
20260904053923 69 270 0.0 0.0 0.00 0.00 0.00 85 1016.5
20260904053422 69 285 0.0 0.0 0.00 0.00 0.00 85 1016.4
20260904052917 69 246 0.0 0.0 0.00 0.00 0.00 84 1016.4
20260904052414 69 246 0.0 0.0 0.00 0.00 0.00 84 1016.4
20260904051910 69 246 0.0 0.0 0.00 0.00 0.00 84 1016.4
20260904051405 69 337 0.0 1.0 0.00 0.00 0.00 84 1016.5
20260904050901 69 270 0.0 1.0 0.00 0.00 0.00 84 1016.5
20260904050357 70 270 0.0 1.0 0.00 0.00 0.00 83 1016.3
20260904045857 69 261 0.0 0.0 0.00 0.00 0.00 83 1016.6
20260904045352 70 262 0.0 1.0 0.00 0.00 0.00 83 1016.4
20260904044851 70 270 0.0 2.0 0.00 0.00 0.00 83 1016.6
20260904044348 70 263 1.0 2.0 0.00 0.00 0.00 83 1016.3
20260904043844 70 270 0.0 3.0 0.00 0.00 0.00 83 1016.2
20260904043341 70 262 0.0 2.0 0.00 0.00 0.00 83 1016.5
20260904042835 70 254 0.0 2.0 0.00 0.00 0.00 83 1016.3
20260904042331 70 287 2.0 3.0 0.00 0.00 0.00 83 1016.2
20260904041826 71 261 0.0 2.0 0.00 0.00 0.00 83 1016.3
20260904041322 71 258 0.0 2.0 0.00 0.00 0.00 83 1016.2
20260904040818 71 261 0.0 2.0 0.00 0.00 0.00 82 1016.2
20260904040313 71 270 0.0 2.0 0.00 0.00 0.00 81 1016.1
20260904035809 71 270 0.0 1.0 0.00 0.00 0.00 81 1015.9
20260904035306 71 253 0.0 2.0 0.00 0.00 0.00 80 1016.0
20260904034804 71 255 0.0 3.0 0.00 0.00 0.00 79 1016.0
20260904034300 71 245 2.0 2.0 0.00 0.00 0.00 78 1015.9
20260904033755 71 257 0.0 1.0 0.00 0.00 0.00 76 1015.8
20260904033252 71 270 2.0 2.0 0.00 0.00 0.00 76 1015.7
20260904032748 72 270 1.0 3.0 0.00 0.00 0.00 74 1015.9
20260904032246 72 270 0.0 0.0 0.00 0.00 0.00 72 1015.7
20260904031741 72 251 2.0 3.0 0.00 0.00 0.00 72 1015.7
20260904031236 72 283 0.0 2.0 0.00 0.00 0.00 70 1015.5
20260904030726 72 254 1.0 3.0 0.00 0.00 0.00 70 1015.6
20260904030222 72 255 1.0 3.0 0.00 0.00 0.00 69 1015.6
20260904025719 72 264 0.0 2.0 0.00 0.00 0.00 69 1015.6
20260904025213 73 252 2.0 2.0 0.00 0.00 0.00 69 1015.6
20260904024709 73 264 1.0 3.0 0.00 0.00 0.00 68 1015.4
20260904024204 73 270 0.0 3.0 0.00 0.00 0.00 68 1015.4
20260904023700 73 292 0.0 4.0 0.00 0.00 0.00 68 1015.5
20260904023156 73 285 3.0 3.0 0.00 0.00 0.00 67 1015.3
20260904022655 73 270 0.0 2.0 0.00 0.00 0.00 67 1015.4
20260904022152 74 312 2.0 3.0 0.00 0.00 0.00 67 1015.4
20260904021648 74 332 2.0 3.0 0.00 0.00 0.00 67 1015.1
20260904021142 74 262 2.0 4.0 0.00 0.00 0.00 68 1015.5
20260904020638 75 242 3.0 3.0 0.00 0.00 0.00 69 1015.3
20260904020127 75 259 3.0 3.0 0.00 0.00 0.00 68 1015.5
20260904015626 76 257 2.0 3.0 0.00 0.00 0.00 68 1015.2
20260904015125 77 270 0.0 1.0 0.00 0.00 0.00 67 1015.4
20260904014625 78 107 0.0 2.0 0.00 0.00 0.00 66 1015.4
20260904014120 77 97 0.0 2.0 0.00 0.00 0.00 66 1015.3
20260904013617 79 225 0.0 2.0 0.00 0.00 0.00 63 1015.2
20260904013113 79 229 0.0 2.0 0.00 0.00 0.00 62 1015.4
20260904012608 79 270 0.0 2.0 0.00 0.00 0.00 63 1015.4
20260904012107 79 342 0.0 1.0 0.00 0.00 0.00 63 1015.5
20260904011606 79 245 0.0 2.0 0.00 0.00 0.00 64 1015.3
20260904011102 79 270 0.0 1.0 0.00 0.00 0.00 63 1015.4
20260904010558 79 279 1.0 2.0 0.00 0.00 0.00 63 1015.3
20260904010054 80 96 0.0 2.0 0.00 0.00 0.00 63 1015.7
20260904005554 79 270 2.0 2.0 0.00 0.00 0.00 64 1015.4
20260904005049 79 90 0.0 2.0 0.00 0.00 0.00 64 1015.5
20260904004545 79 205 3.0 3.0 0.00 0.00 0.00 63 1015.6
20260904004040 79 71 0.0 2.0 0.00 0.00 0.00 63 1015.5
20260904003536 79 254 0.0 4.0 0.00 0.00 0.00 64 1015.3
20260904003032 80 206 2.0 2.0 0.00 0.00 0.00 63 1015.5
20260904002527 79 97 0.0 3.0 0.00 0.00 0.00 63 1015.3
20260904002027 80 249 1.0 3.0 0.00 0.00 0.00 61 1015.4
20260904001523 80 278 0.0 3.0 0.00 0.00 0.00 62 1015.4
20260904001021 80 264 0.0 2.0 0.00 0.00 0.00 61 1015.4
20260904000521 80 229 2.0 4.0 0.00 0.00 0.00 62 1015.7
20260904000018 79 246 1.0 6.0 0.00 0.00 0.00 62 1015.5
20260903235512 81 205 3.0 5.0 0.00 0.00 0.00 60 1015.4
20260903235007 81 206 0.0 2.0 0.00 0.00 0.00 59 1015.5
20260903234503 81 236 0.0 4.0 0.00 0.00 0.00 60 1015.6
20260903233959 80 228 2.0 3.0 0.00 0.00 0.00 61 1015.5
20260903233454 80 212 2.0 4.0 0.00 0.00 0.00 61 1015.6
20260903232944 81 212 0.0 5.0 0.00 0.00 0.00 59 1015.6
20260903232439 80 235 0.0 3.0 0.00 0.00 0.00 59 1015.7
20260903231938 80 203 3.0 3.0 0.00 0.00 0.00 58 1015.7
20260903231433 81 225 3.0 3.0 0.00 0.00 0.00 57 1015.8
20260903230928 80 213 0.0 2.0 0.00 0.00 0.00 57 1015.8
20260903230424 80 264 2.0 3.0 0.00 0.00 0.00 58 1015.7
20260903225920 81 206 3.0 3.0 0.00 0.00 0.00 57 1015.9
20260903225415 79 195 0.0 5.0 0.00 0.00 0.00 59 1015.9
20260903224912 78 218 2.0 3.0 0.00 0.00 0.00 60 1016.0
20260903224408 80 232 4.0 5.0 0.00 0.00 0.00 58 1016.0
20260903223904 78 231 2.0 3.0 0.00 0.00 0.00 60 1016.0
20260903223402 80 188 1.0 5.0 0.00 0.00 0.00 59 1016.4
20260903222856 79 204 0.0 5.0 0.00 0.00 0.00 61 1016.2
20260903222351 79 254 2.0 5.0 0.00 0.00 0.00 61 1016.2
20260903221845 78 252 0.0 4.0 0.00 0.00 0.00 62 1016.5
20260903221343 79 195 0.0 4.0 0.00 0.00 0.00 61 1016.4
20260903220842 79 270 0.0 4.0 0.00 0.00 0.00 60 1016.5
20260903220331 80 243 1.0 6.0 0.00 0.00 0.00 62 1016.6
20260903215829 78 225 2.0 6.0 0.00 0.00 0.00 62 1016.5
20260903215326 79 348 2.0 3.0 0.00 0.00 0.00 60 1016.5
20260903214823 79 227 3.0 3.0 0.00 0.00 0.00 57 1016.6
20260903214314 78 175 0.0 5.0 0.00 0.00 0.00 60 1016.6
20260903213808 78 262 1.0 5.0 0.00 0.00 0.00 61 1016.6
20260903213304 78 114 1.0 3.0 0.00 0.00 0.00 61 1016.4
20260903212800 80 209 3.0 5.0 0.00 0.00 0.00 58 1016.5
20260903212256 77 206 1.0 3.0 0.00 0.00 0.00 58 1016.6
20260903211754 78 248 0.0 4.0 0.00 0.00 0.00 59 1016.7
20260903211252 77 250 2.0 4.0 0.00 0.00 0.00 62 1016.6
20260903210747 78 214 2.0 5.0 0.00 0.00 0.00 63 1016.8
20260903210242 78 262 0.0 3.0 0.00 0.00 0.00 61 1016.8
20260903205736 77 355 0.0 4.0 0.00 0.00 0.00 63 1016.9
20260903205236 78 243 3.0 5.0 0.00 0.00 0.00 62 1016.9
20260903204731 77 331 1.0 3.0 0.00 0.00 0.00 62 1016.7
20260903204227 78 186 0.0 5.0 0.00 0.00 0.00 63 1017.1
20260903203722 79 232 0.0 3.0 0.00 0.00 0.00 61 1017.1
20260903203218 80 216 2.0 2.0 0.00 0.00 0.00 61 1017.0
20260903202712 80 203 3.0 5.0 0.00 0.00 0.00 61 1016.8
20260903202208 78 225 0.0 3.0 0.00 0.00 0.00 61 1016.9
20260903201707 77 212 2.0 4.0 0.00 0.00 0.00 63 1017.1
20260903201202 76 270 2.0 4.0 0.00 0.00 0.00 64 1017.1
20260903200656 77 237 0.0 2.0 0.00 0.00 0.00 64 1017.0
20260903200152 77 225 3.0 5.0 0.00 0.00 0.00 64 1017.2
20260903195647 75 341 2.0 3.0 0.00 0.00 0.00 66 1017.4
20260903195143 77 217 5.0 5.0 0.00 0.00 0.00 64 1017.4
20260903194638 77 201 2.0 5.0 0.00 0.00 0.00 64 1017.7
20260903194137 78 251 0.0 2.0 0.00 0.00 0.00 62 1017.4
20260903193633 80 222 3.0 3.0 0.00 0.00 0.00 63 1017.5
20260903193128 77 247 2.0 4.0 0.00 0.00 0.00 64 1017.6
20260903192625 78 250 0.0 3.0 0.00 0.00 0.00 63 1017.7
20260903192120 77 229 0.0 3.0 0.00 0.00 0.00 63 1017.7
20260903191616 75 356 0.0 3.0 0.00 0.00 0.00 64 1017.8
20260903191111 77 211 4.0 4.0 0.00 0.00 0.00 61 1017.8
20260903190611 76 240 0.0 3.0 0.00 0.00 0.00 62 1018.0
20260903190110 75 206 0.0 3.0 0.00 0.00 0.00 65 1017.8
20260903185606 74 290 0.0 5.0 0.00 0.00 0.00 64 1018.1
20260903185101 76 220 0.0 2.0 0.00 0.00 0.00 62 1018.3
20260903184557 74 262 0.0 1.0 0.00 0.00 0.00 65 1018.3
20260903184053 74 120 0.0 1.0 0.00 0.00 0.00 66 1018.4
20260903183551 74 216 0.0 9.0 0.00 0.00 0.00 66 1018.4
20260903183052 75 268 0.0 5.0 0.00 0.00 0.00 65 1018.4
20260903182550 78 212 2.0 2.0 0.00 0.00 0.00 62 1018.5
20260903182047 75 81 0.0 1.0 0.00 0.00 0.00 63 1018.6